Tracking 27380 objects as of 6-Jun-2023
HD Live streaming from Space Station
objects crossing your sky now

COSMOS 2535 DEB

Track COSMOS 2535 DEB now!
10-day predictions


NORAD ID: 44640
Int'l Code: 2019-039L
Perigee: 610.3 km
Apogee: 704.5 km
Inclination: 97.7 °
Period: 97.7 minutes
Semi major axis: 7028 km
RCS: Unknown
Launch date: July 10, 2019
Source: Commonwealth of Independent States (former USSR) (CIS)
Launch site: PLESETSK MISSILE AND SPACE COMPLEX (PKMTR)

Note: This is SATELLITE DEBRIS
Your satellite tracking list
Your tracking list is empty




NASA's NSSDC Master Catalog

Two Line Element Set (TLE):
1 44640U 19039L   23154.84781140  .00001611  00000-0  24733-3 0  9999
2 44640  97.7188 170.5445 0067069  69.3954 291.4432 14.73392379196807
Source of the keplerian elements: AFSPC